CZ-6A DEB, 54406

Orbit data source: Space-Track

CZ-6A DEB, 54406 is space debris in SSO originally from a launch on Fri, 11 Nov 2022 UTC launched from the Taiyaun Space Center, China (TSC). Debris objects in space refer to the collection of defunct objects orbiting the Earth. Examples of debris include non-operational satellites, rocket bodies, and fragments generated from explosions, collisions, or faulty payload assembly.

Loading next visibility...
Identifier
54406, 2022-151EE
Orbit
SSO
Country
Flag of CNCN / PRC
Related business
Manufacturer
SAST
Mission
Spacecraft
Bus & Motor
Unknown
Mass
Unknown
Launch date (UTC)
2022-11-11 (4 years ago)
Launch vehicle
Unknown
Launch site
Taiyaun Space Center, China (TSC)
Object type
Payload
Rocket body
Debris
Shape & HBR
Unknown shape, 0.1 m
Radar Cross Section
Medium (>0.1 m² and <1 m²)

Expand to show TLE details & history
Last TLE update: 23 hours ago

TLE from 23 hours ago
0 CZ-6A DEB
1 54406U 22151EE  26254.00017286  .00003111  00000-0  88050-3 0  9993
2 54406  98.6039 276.2480 0107747 152.6477 208.0442 14.42941095200284
Epoch: 2026-09-11T00:00Z
TLE epoch observation values (Epoch: 2026-09-11T00:00:14.935Z)
Latitude
-0.00006°
Longitude
-73.84403°
Altitude
819.716 km
Speed
7.408 km/s
True Right ascension
18h 24m 59s
True Declination
0° 00' 00"
Sunlit
Object was in daylight at epoch
Visualization orbit readout
Latitude
Unknown
Longitude
Unknown
Altitude
Unknown
Speed
Unknown
Apparent Right ascension
Unknown
Apparent Declination
Unknown
Sunlit
N/A
Visualization observer readout
Local Sidereal Time
15:03:38
Azimuth
Unknown
Elevation
Unknown
Doppler factor
Unknown
Orbital elements
Apogee altitude
822.68 km
Perigee altitude
669.16 km
Semi-major axis
7,124.057 km
Eccentricity
0.01077
Inclination
98.6039°
RAAN
276.248°
Arg. of periapsis
152.6477°
True anomaly
207.47054°
Mean anomaly
208.0442°
Eccentric anomaly
207.75669°
Mean motion
3.60954 °/min
Orbital period
99.74 mins
BSTAR
0.0008805
Loading maneuver chart data...
Computing Atmospheric mass density...
Loading historical data...
Loading historical data...
Loading historical data...
Loading historical data...
Loading historical data...
Loading historical data...
Loading historical data...

Documentation

Showing up to 5 results
|